Weather History for KNBC - November, 2012

Change the Weather History Date:

Thursday, November 1, 2012

  Actual Average Record
Temperature  
Mean Temperature 56 °F -  
Max Temperature 68 °F 73 °F 90 °F (1942)
Min Temperature 45 °F 55 °F 31 °F (1954)
Degree Days  
Heating Degree Days 8    
Growing Degree Days 6 (Base 50)    
Moisture  
Dew Point 28 °F    
Average Humidity 41    
Maximum Humidity 71    
Minimum Humidity 13    
Precipitation  
Precipitation 0.00 in - - ()
Sea Level Pressure  
Sea Level Pressure 29.90 in    
Wind  
Wind Speed 9 mph (West)    
Max Wind Speed 17 mph    
Max Gust Speed 24 mph    
Visibility 10 miles    
Events      
Averages and records for this station are not official NWS values.
T = Trace of Precipitation, MM = Missing Value Source: NWS Daily Summary

Daily Weather History Graph

Daily Weather History Graph

Search for Another Location

Airport or City:

Trip Planner

Search our weather history database for the weather conditions in past years. The results will help you decide how hot, cold, wet, or windy it might be!

Date:

Astronomy

Nov. 01, 2012 Rise Set
Actual Time 7:40 AM EDT 6:31 PM EDT
Civil Twilight 7:15 AM EDT 6:57 PM EDT
Nautical Twilight 6:46 AM EDT 7:26 PM EDT
Astronomical Twilight 6:17 AM EDT 7:55 PM EDT
Moon 8:34 PM EDT (11/1) 10:04 AM EDT (11/1)
Length of Visible Light 11h 42m
Length of Day
10h 51m
Waning Gibbous, 93% of the Moon is Illuminated
Nov 1
Waning Gibbous
Nov 6
Last Quarter
Nov 13
New
Nov 20
First Quarter
Nov 28
Full

Hourly Weather History & Observations

Time (EDT) Temp. Windchill Dew Point Humidity Pressure Visibility Wind Dir Wind Speed Gust Speed Precip Events Conditions
12:56 AM 48.0 °F - 37.9 °F 68% 29.88 in 10.0 mi WSW 8.1 mph - N/A   Clear
1:56 AM 48.9 °F - 37.9 °F 66% 29.88 in 10.0 mi West 8.1 mph - N/A   Clear
2:56 AM 53.1 °F - 37.0 °F 55% 29.88 in 10.0 mi West 8.1 mph - N/A   Clear
3:56 AM 50.0 °F - 37.0 °F 61% 29.88 in 10.0 mi West 8.1 mph - N/A   Clear
4:56 AM 48.9 °F - 36.0 °F 61% 29.88 in 10.0 mi West 8.1 mph - N/A   Clear
5:56 AM 45.0 °F 40.6 °F 36.0 °F 71% 29.90 in 10.0 mi West 8.1 mph - N/A   Clear
6:56 AM 46.9 °F - 37.0 °F 68% 29.91 in 10.0 mi West 9.2 mph - N/A   Clear
7:56 AM 46.9 °F - 36.0 °F 66% 29.92 in 10.0 mi West 8.1 mph - N/A   Partly Cloudy
8:56 AM 50.0 °F - 33.1 °F 52% 29.93 in 10.0 mi West 9.2 mph - N/A   Clear
9:56 AM 53.1 °F - 30.9 °F 43% 29.94 in 10.0 mi WNW 9.2 mph - N/A   Partly Cloudy
10:56 AM 55.9 °F - 28.0 °F 34% 29.93 in 10.0 mi WNW 15.0 mph - N/A   Clear
11:56 AM 60.1 °F - 27.0 °F 28% 29.92 in 10.0 mi WNW 12.7 mph - N/A   Clear
12:56 PM 62.1 °F - 23.0 °F 22% 29.89 in 10.0 mi WNW 15.0 mph 20.7 mph N/A   Clear
1:56 PM 64.9 °F - 23.0 °F 20% 29.86 in 10.0 mi NW 13.8 mph 20.7 mph N/A   Clear
2:56 PM 66.9 °F - 19.0 °F 16% 29.84 in 10.0 mi WNW 17.3 mph 24.2 mph N/A   Clear
3:56 PM 68.0 °F - 15.1 °F 13% 29.83 in 10.0 mi WNW 15.0 mph 23.0 mph N/A   Clear
4:56 PM 68.0 °F - 16.0 °F 14% 29.84 in 10.0 mi WNW 10.4 mph 21.9 mph N/A   Clear
5:56 PM 64.9 °F - 17.1 °F 16% 29.86 in 10.0 mi WNW 8.1 mph - N/A   Clear
6:56 PM 59.0 °F - 21.9 °F 24% 29.89 in 10.0 mi WNW 5.8 mph - N/A   Clear
7:56 PM 54.0 °F - 25.0 °F 33% 29.91 in 10.0 mi West 6.9 mph - N/A   Clear
8:56 PM 48.0 °F - 30.0 °F 50% 29.93 in 10.0 mi West 6.9 mph - N/A   Clear
9:56 PM 48.9 °F - 28.0 °F 44% 29.94 in 10.0 mi West 6.9 mph - N/A   Clear
10:56 PM 53.1 °F - 24.1 °F 32% 29.96 in 10.0 mi West 5.8 mph - N/A   Clear
11:56 PM 51.1 °F - 26.1 °F 38% 29.97 in 10.0 mi WNW 4.6 mph - N/A   Clear